Location: American Medical Response
(33.3472°N, 96.5511°W)
Time: 11:41:56
(UTC+00:00)

Cosmos 1805 Rocket - Pass Details

Date: 08 July 2022
Orbit: 605 x 629 km, 82.5° (Epoch: 09 August)

Event Time Altitude Azimuth Distance (km) Brightness Sun altitude
Exits shadow 08:32:15 29° 102° (ESE) 1,138 5.0 -27.2°
Maximum altitude 08:32:41 30° 90° (E) 1,123 5.1 -27.1°
Drops below altitude 10° 08:36:30 10° 30° (NNE) 1,983 7.2 -26.7°
Sets 08:38:55 0° 20° (NNE) 2,888 8.2 -26.5°
